RH
7 7 7 8 9 10 11 13 16 18 23 27 30 33 33 33 35 35 37 37 33 33 36 36 36 38 42 45 46 43 41 41 41 38 36 38 39 38 38 38 37 34 27 23 22 22 22 23 24 25 26 26 27 28 29 31 34 32 31 33 30 26 30 32 30 29 30 31 31 32 33 35 34 33 35 36 36 38 40 41 41 41 45 43 35 32
7 7 6 7 9 10 12 14 16 18 20 26 29 31 33 34 36 34 33 35 32 31 35 37 36 37 39 40 42 42 41 41 41 40 38 38 39 38 38 38 37 35 32 29 25 22 22 23 25 27 26 26 27 27 28 30 33 31 29 32 31 26 27 28 27 27 29 31 32 34 34 37 38 37 38 37 36 38 39 40 39 36 39 42 35 29
6 6 6 6 8 9 11 13 15 16 18 24 28 28 31 34 35 33 31 34 34 31 34 37 36 37 38 39 40 41 40 40 40 40 39 38 39 40 39 37 37 35 33 33 29 22 22 23 24 26 26 26 26 27 29 30 32 31 28 29 30 28 25 27 27 26 27 30 33 35 36 38 39 39 40 39 38 39 40 40 38 36 34 34 33 30
6 5 5 6 7 8 10 11 13 15 16 22 28 27 29 32 33 31 29 34 36 33 35 38 38 38 40 41 41 41 41 41 39 39 38 38 39 40 40 38 37 34 29 31 31 24 21 22 22 24 25 26 26 27 28 30 32 30 26 25 28 28 26 26 28 27 27 30 31 32 34 37 39 39 39 39 39 39 40 39 38 37 34 31 32 32
7 6 5 6 7 8 9 10 11 13 14 19 26 29 29 30 30 30 31 35 38 37 37 39 41 40 40 41 40 40 42 42 39 39 38 37 38 40 41 39 37 34 30 29 29 25 21 21 22 23 25 26 26 27 28 29 31 28 24 23 26 29 29 27 29 28 28 28 29 29 30 33 36 38 39 39 38 37 37 38 38 37 35 34 35 36
9 8 6 5 7 7 8 9 9 12 13 15 21 27 29 28 26 28 31 34 38 39 37 38 43 42 39 40 41 41 42 42 40 38 38 37 38 40 41 40 39 38 36 32 29 26 23 21 21 23 24 26 26 26 27 29 31 28 24 24 26 30 31 29 29 27 27 27 27 29 30 31 34 35 36 36 36 38 38 38 39 38 37 37 37 35
10 9 8 6 6 7 7 8 9 10 12 14 17 21 25 27 27 27 27 31 36 39 37 37 40 40 40 41 42 42 42 42 40 37 37 39 40 40 39 38 39 38 36 34 33 31 29 25 23 23 24 25 25 26 27 28 30 29 26 26 27 29 30 30 28 26 25 25 25 28 31 33 34 34 34 32 33 40 41 39 39 39 37 34 32 33
10 8 8 7 6 6 7 7 8 9 10 13 16 18 21 24 27 27 28 31 34 36 39 39 37 39 41 40 40 40 40 42 41 38 37 37 39 40 39 38 37 37 35 34 35 36 34 31 27 25 26 27 26 26 27 28 29 31 30 28 26 26 28 29 28 25 23 24 25 26 29 32 35 36 35 32 30 35 40 40 39 38 37 33 29 33
12 9 8 7 6 6 6 7 8 9 10 11 14 19 20 22 25 28 28 29 31 36 40 40 39 40 40 38 38 38 37 39 39 38 38 37 37 40 42 43 39 36 36 36 37 38 38 36 32 29 29 30 30 29 28 28 29 31 31 30 26 25 28 28 27 25 22 23 24 25 26 28 31 35 38 38 33 31 36 42 40 37 37 37 32 32
13 10 8 8 7 6 6 7 8 9 10 9 12 18 21 21 22 26 28 27 31 37 40 40 40 41 39 37 38 38 36 36 36 37 39 39 39 39 43 49 46 38 36 37 39 40 39 38 35 33 32 33 34 33 31 31 31 32 33 33 28 25 27 26 25 24 22 23 24 24 25 25 27 31 35 40 39 33 34 37 37 37 37 40 38 35
14 12 10 8 7 7 7 7 7 7 8 9 11 17 22 21 21 24 28 29 32 36 37 39 40 39 38 35 35 36 35 36 38 39 41 42 39 36 38 44 46 44 40 35 36 39 40 40 37 35 34 35 37 37 35 35 35 35 37 36 30 27 29 27 25 25 23 24 24 24 25 24 25 28 32 36 38 38 38 35 35 39 41 43 44 41
13 13 12 9 8 7 6 6 6 6 7 9 11 18 23 24 25 27 29 30 31 33 33 35 38 39 37 33 32 33 33 36 39 39 41 41 37 34 34 35 40 47 47 39 35 36 37 39 39 36 35 36 38 39 37 37 38 37 39 38 32 30 32 30 28 27 26 26 26 26 26 26 27 30 32 34 35 38 40 38 40 43 44 46 47 46
13 12 12 12 9 8 7 5 5 6 7 7 10 18 25 27 29 29 29 29 30 31 32 31 35 37 34 31 30 32 34 35 36 37 37 38 37 36 35 34 35 42 49 45 36 34 35 36 38 38 37 37 38 39 37 37 38 38 40 40 34 32 33 33 31 29 29 29 29 29 29 29 29 30 33 33 34 37 39 41 43 45 46 48 49 49
15 12 12 13 11 8 7 6 5 5 6 7 9 17 24 26 30 32 29 28 28 29 30 30 33 37 35 32 31 33 35 35 36 36 35 34 37 39 38 38 36 36 44 46 37 33 33 34 36 36 37 38 38 38 38 36 37 38 41 42 36 32 33 34 32 31 30 30 31 31 31 31 30 30 32 34 35 36 38 41 43 46 48 48 49 48
16 14 12 12 11 9 7 5 5 5 6 7 7 14 20 20 25 30 28 27 28 28 28 30 32 35 35 35 33 33 34 36 37 36 34 33 33 38 40 39 37 33 35 38 35 32 32 33 35 36 36 38 38 37 36 35 35 36 39 40 34 31 32 33 33 32 31 32 33 33 32 32 31 31 32 35 36 36 37 40 43 47 48 47 47 46
15 13 11 12 12 9 7 5 5 5 6 7 7 11 16 15 18 25 26 28 29 27 27 29 30 29 31 34 36 35 33 34 35 32 34 34 32 35 37 36 36 33 30 30 31 31 32 33 35 35 35 36 36 36 35 33 34 35 37 38 32 29 30 32 32 33 32 33 34 33 32 31 32 33 34 36 36 35 35 38 42 45 46 47 47 47
16 15 13 13 13 11 8 7 6 5 6 8 8 9 10 12 16 23 27 28 28 27 26 26 27 28 28 29 32 35 33 32 31 29 32 35 34 34 34 32 31 30 28 28 30 32 33 33 34 34 34 34 34 36 35 35 34 32 34 36 31 26 27 29 30 31 31 31 31 31 31 32 32 34 36 37 36 35 34 36 39 41 43 44 48 51
17 19 18 14 13 14 11 9 8 6 6 8 8 7 7 10 16 23 27 27 27 28 27 24 24 26 28 26 27 31 31 29 30 30 31 34 34 33 30 28 27 27 28 28 29 32 33 33 34 34 34 35 35 36 35 35 34 30 30 32 29 27 27 29 29 29 29 29 30 31 31 31 32 34 37 38 37 35 34 35 36 38 40 42 47 53
16 19 21 17 14 14 12 11 10 7 6 6 7 8 8 9 14 21 25 26 29 28 26 26 24 23 26 27 27 30 29 27 29 31 32 32 32 30 27 28 30 31 34 31 28 31 32 33 35 34 35 36 37 36 35 34 33 29 28 29 29 28 29 30 30 29 30 30 30 30 30 31 33 34 36 37 37 36 34 35 37 38 41 43 47 52
17 17 20 20 16 15 13 11 10 9 7 5 6 9 11 9 11 17 22 24 28 27 25 27 26 22 25 26 28 31 30 27 28 32 32 28 26 27 28 29 30 30 33 31 29 31 32 33 34 35 35 37 37 38 37 34 32 30 29 29 29 30 30 30 30 29 29 29 30 31 32 32 33 34 35 34 36 38 37 38 40 41 44 48 49 51
19 18 18 21 19 15 12 11 9 8 8 6 5 8 12 12 11 15 19 20 23 26 26 27 26 24 25 24 25 29 31 30 29 31 29 23 21 25 27 30 29 25 26 28 28 30 31 32 34 35 36 37 38 39 37 35 33 32 32 29 29 31 32 31 31 30 28 29 29 31 32 33 32 32 33 33 35 37 39 41 42 43 47 52 52 50
17 19 17 20 22 15 10 11 10 8 8 7 5 5 9 14 15 15 17 18 21 24 26 27 26 26 25 23 25 29 31 31 30 29 27 25 25 24 24 28 29 25 26 28 28 27 29 31 33 34 35 36 37 38 38 37 35 34 34 33 31 33 35 34 33 31 30 29 29 30 32 32 32 32 33 34 35 38 40 42 44 45 47 53 54 48
15 19 18 18 20 19 14 12 11 9 8 9 9 6 6 11 16 16 15 18 24 25 24 25 26 25 24 23 25 28 30 29 28 29 28 27 28 28 26 26 28 29 28 27 27 26 27 30 31 32 34 35 36 38 38 38 35 35 36 36 35 35 37 38 36 33 32 31 30 31 32 32 33 33 34 35 37 40 41 41 43 45 45 52 55 47
15 18 21 19 19 22 21 16 14 11 9 9 11 9 7 7 12 15 15 19 24 24 25 26 26 25 25 25 25 26 29 31 30 29 28 27 28 28 26 24 27 31 30 26 26 26 27 29 30 30 32 33 35 37 38 38 38 38 38 38 37 37 37 39 38 35 33 33 33 33 33 33 34 36 37 38 39 41 42 43 47 47 45 51 53 44
18 17 21 23 22 23 25 21 16 13 9 8 9 9 8 8 8 10 13 19 22 22 25 26 24 25 27 27 26 26 27 32 31 27 24 26 27 27 26 25 25 28 28 27 27 27 28 30 30 30 30 32 34 36 38 39 39 39 38 38 38 38 37 39 39 37 34 34 35 35 36 37 38 40 40 41 42 43 45 49 52 51 46 46 47 43
22 21 21 23 23 22 21 19 16 15 12 10 8 8 9 10 10 9 11 17 20 21 23 24 22 25 27 26 26 26 27 29 27 23 21 23 24 23 25 27 27 28 29 28 28 28 28 30 31 32 31 32 35 37 39 40 40 39 38 37 38 38 37 37 38 38 35 34 36 39 40 41 41 42 43 44 45 47 49 52 55 54 49 46 47 46
24 24 22 21 22 20 19 20 20 19 19 17 12 9 9 11 13 13 12 13 15 17 21 21 22 26 26 25 26 27 29 29 24 20 20 21 21 21 23 26 28 29 30 29 29 30 30 30 32 34 34 34 36 38 39 40 40 39 37 37 39 38 37 36 37 39 38 37 39 41 41 41 42 42 44 45 46 47 49 52 54 55 54 52 53 52
24 25 22 21 23 21 20 25 26 25 25 24 20 16 12 11 13 15 14 13 13 15 16 16 20 24 22 24 28 26 26 27 23 20 19 19 20 19 21 26 27 28 29 29 29 30 30 30 33 35 37 37 37 39 40 41 41 40 38 38 39 38 37 36 37 40 39 38 40 41 40 41 42 42 44 45 46 46 48 50 52 55 58 56 55 56
25 26 22 21 23 21 20 23 28 31 29 26 27 26 21 15 13 14 15 14 13 15 15 14 19 21 17 17 24 26 27 27 25 22 19 19 20 17 17 23 26 27 28 29 30 30 29 30 33 35 37 38 38 39 40 42 41 41 40 39 38 37 36 36 37 40 39 37 39 41 42 42 42 44 45 45 46 46 47 49 50 54 59 58 56 58
24 26 24 22 22 22 20 20 23 30 31 29 29 30 28 25 21 16 15 14 14 15 14 14 17 20 18 16 18 21 25 27 28 27 21 18 19 17 16 21 26 28 29 28 28 28 28 30 33 34 35 37 39 38 39 40 40 40 39 38 37 35 35 35 37 38 38 37 40 42 43 43 43 44 45 46 47 47 48 49 50 53 58 59 58 57
23 26 27 26 25 24 23 21 19 23 26 29 30 29 28 28 27 24 19 16 16 16 14 13 14 16 18 21 19 17 20 23 26 29 26 20 18 18 17 19 23 26 29 29 27 26 27 30 33 34 34 35 36 37 38 38 38 39 39 36 34 33 35 37 36 36 38 39 40 41 42 43 44 45 46 47 50 51 50 50 52 53 55 58 59 58
26 27 28 30 31 29 26 25 23 22 25 27 26 27 28 28 28 28 25 21 19 18 16 15 14 12 14 19 22 18 17 18 19 22 23 21 19 18 17 17 18 21 25 27 25 25 28 31 31 31 32 34 34 32 35 37 37 38 38 36 33 33 36 38 36 36 38 39 40 41 41 43 45 45 46 47 50 54 55 53 53 55 57 58 59 59
25 29 30 32 35 33 31 29 27 30 34 30 22 20 24 28 29 28 27 25 23 22 21 18 13 12 12 15 18 17 16 16 16 15 16 17 18 17 16 16 15 17 21 23 23 24 27 29 29 28 31 35 33 30 33 37 37 36 36 35 33 33 36 39 37 36 38 39 40 40 40 43 45 45 47 47 48 54 57 56 56 58 60 61 62 62
23 30 34 33 33 34 33 32 34 38 37 29 22 20 21 24 28 27 25 25 26 26 27 25 21 20 19 16 14 14 14 15 17 15 13 14 15 15 15 15 13 15 18 21 23 25 26 27 28 31 34 36 35 33 35 39 38 36 36 35 33 33 35 37 37 36 36 38 38 37 39 43 45 47 50 51 51 56 59 59 60 62 63 65 66 65
26 31 35 34 34 35 34 37 41 40 31 25 27 28 25 24 27 28 25 23 23 24 24 25 27 28 28 22 17 16 15 14 15 16 13 11 11 12 12 12 13 14 16 20 24 26 26 27 29 32 35 36 36 37 38 39 37 35 36 36 34 34 35 36 37 36 35 35 35 36 38 41 43 48 54 55 55 58 60 60 60 62 63 64 63 62
31 34 39 39 39 40 39 40 42 37 30 29 32 32 31 31 33 33 31 27 26 26 25 24 26 27 28 26 23 22 22 18 16 14 13 11 10 11 11 10 11 12 14 19 25 25 25 27 29 32 35 36 37 37 37 38 39 37 37 36 35 35 35 35 36 35 34 34 34 35 37 40 43 51 55 55 57 58 58 59 60 60 62 61 59 60
36 41 45 44 43 44 44 41 40 37 34 37 41 40 39 42 41 40 37 33 29 27 27 26 26 26 26 28 28 26 24 21 18 16 15 14 13 13 14 13 13 13 13 18 25 26 25 27 29 32 35 37 37 37 38 40 41 39 37 36 35 34 33 33 35 35 35 35 35 36 38 40 44 52 55 54 56 58 59 60 60 61 64 63 61 61
35 41 47 48 44 44 44 43 41 41 42 47 50 46 42 43 43 42 39 34 30 29 29 30 31 30 28 29 30 26 21 21 20 17 17 19 18 17 19 19 17 17 19 22 25 26 26 27 31 33 34 36 38 39 39 40 40 38 37 37 36 34 32 33 34 35 35 35 36 37 39 40 43 49 54 55 57 59 61 62 62 64 66 65 63 61
31 36 45 50 48 46 45 45 44 43 47 52 51 47 44 42 41 40 37 35 35 34 33 34 36 35 33 33 30 24 21 22 19 16 19 22 21 19 19 16 13 15 18 19 21 25 26 27 32 35 35 35 37 36 36 37 36 35 36 37 36 35 33 33 34 35 35 35 37 38 39 40 40 44 50 56 58 60 62 63 64 65 66 66 64 61
30 33 39 45 48 49 49 48 47 45 49 51 48 45 46 43 42 43 41 38 42 43 37 34 34 34 35 35 33 27 23 20 17 18 22 22 19 18 17 15 12 11 12 15 20 25 28 30 34 36 37 37 36 34 36 37 35 33 33 35 37 38 36 34 35 35 35 36 37 38 38 39 40 41 48 55 60 62 62 64 65 66 66 66 64 60
31 32 35 37 40 45 50 52 49 46 48 49 46 44 45 45 47 49 46 43 45 45 39 35 33 31 30 32 32 31 28 24 19 19 22 22 20 20 18 16 15 14 15 18 23 28 32 35 36 36 36 37 36 36 38 38 35 34 35 37 41 42 41 39 39 38 36 37 38 39 40 40 42 45 52 58 61 62 63 64 65 67 68 66 62 59
31 32 33 34 32 34 40 46 46 44 47 49 46 45 48 51 53 53 50 46 43 41 40 39 36 32 31 30 29 28 29 29 26 24 25 27 28 28 23 18 17 18 19 22 25 30 34 36 36 36 37 37 39 41 43 41 38 38 40 43 46 47 46 43 40 38 37 38 40 43 45 44 46 52 59 62 62 62 63 64 67 69 68 64 60 58
32 31 31 33 33 31 32 36 38 42 47 51 51 50 51 53 53 50 48 46 42 41 42 40 37 36 36 35 32 29 27 30 32 32 30 31 31 29 26 22 20 21 23 27 29 32 34 35 35 37 38 39 42 45 46 44 42 44 46 48 48 46 43 39 38 37 39 42 46 50 52 50 52 58 62 62 62 63 65 67 68 68 66 61 59 56
36 33 30 30 31 30 29 32 35 40 45 49 51 50 50 50 48 45 44 43 41 41 41 39 39 41 40 39 38 34 30 32 35 32 29 30 31 26 23 23 24 24 27 29 30 31 33 35 37 38 39 41 43 45 44 41 40 42 44 43 40 38 37 36 36 39 43 48 52 55 55 55 58 61 62 62 62 64 66 67 65 64 62 58 55 53
50 47 44 40 35 32 34 38 42 45 48 48 48 48 47 46 44 42 41 41 40 39 39 40 42 41 40 42 45 44 42 42 41 36 35 38 37 30 26 27 28 29 30 30 31 33 35 37 40 40 41 43 43 41 39 36 35 36 36 35 34 35 36 37 38 40 46 50 54 55 57 58 60 61 61 61 61 62 63 63 62 61 59 55 52 50
66 65 62 54 47 45 47 47 48 50 50 48 48 48 45 41 38 37 38 38 38 38 39 42 45 45 45 48 50 49 49 51 49 46 45 46 41 33 29 31 32 34 36 37 37 37 37 37 39 40 39 39 37 35 34 34 34 35 35 36 37 38 39 41 43 45 47 50 52 55 58 60 61 61 60 59 59 59 59 60 60 59 55 51 49 47
74 71 67 61 56 55 56 55 53 52 50 48 48 47 43 39 36 34 35 36 39 40 41 44 51 55 54 55 56 54 54 56 56 53 50 49 48 42 37 37 39 38 37 39 39 37 36 36 36 36 36 36 37 36 35 36 36 36 36 38 39 41 44 47 48 49 50 50 51 56 60 60 59 58 58 58 58 58 58 59 58 55 50 47 45 46
79 75 72 69 66 63 61 60 57 52 49 46 45 44 42 40 37 34 32 35 39 44 48 52 59 64 63 62 61 60 59 61 60 57 54 54 55 52 47 48 50 47 43 44 45 42 40 39 38 36 37 40 42 40 39 40 40 40 41 42 43 46 49 51 52 53 53 52 54 59 61 60 58 57 57 58 58 59 57 56 53 48 46 46 46 48
78 75 74 74 73 68 64 61 56 52 49 46 44 44 43 41 39 35 33 35 41 48 56 60 64 67 70 69 66 64 64 64 61 58 58 59 60 60 58 57 55 51 48 48 46 43 40 39 38 37 38 42 45 44 44 45 45 47 48 47 46 47 49 50 52 54 54 55 58 61 62 60 58 58 57 57 58 58 55 51 48 45 45 46 46 49
81 79 77 78 77 74 71 68 63 59 56 52 49 49 47 45 42 39 38 43 48 56 65 69 67 66 68 68 67 66 66 66 63 61 62 65 64 62 59 56 52 50 50 50 47 44 43 43 42 42 42 44 46 46 47 48 49 50 51 49 47 47 47 48 52 55 57 58 59 60 61 61 59 58 58 57 56 53 50 47 44 44 45 45 45 49
84 82 81 81 80 79 80 77 71 67 63 58 55 54 52 50 47 44 45 51 55 61 70 74 71 67 66 66 65 63 62 61 60 59 59 61 62 62 60 58 56 55 54 54 52 50 48 47 46 45 44 45 45 45 46 48 50 50 48 46 47 47 46 47 53 57 58 58 58 59 60 58 57 56 56 54 51 48 46 44 43 44 45 45 47 54